Orbital Elements at Epoch 2459000.5 (2020-May-31.0) TDB
Reference: JPL 19 (heliocentric ecliptic J2000)
Element | Value | Uncertainty (1-sigma) | Units |
e | .1875478739925918 | 4.3818e-08 | |
a | 2.725107939435851 | 1.4768e-08 | au |
q | 2.214019738994325 | 1.218e-07 | au |
i | 3.906373971015655 | 4.6518e-06 | deg |
node | 271.3634069799623 | 8.8338e-05 | deg |
peri | 29.84473879934824 | 8.9583e-05 | deg |
M | 342.1616212136325 | 1.4587e-05 | deg |
tp | 2459081.919207586457 (2020-Aug-20.41920759) | 6.6683e-05 | TDB |
period | 1643.137814380563 4.50 | 1.3357e-05 3.657e-08 | d yr |
n | .2190930041590664 | 1.7809e-09 | deg/d |
Q | 3.236196139877378 | 1.7537e-08 | au |
|
| | Orbit Determination Parameters
Additional Information
|